Location: Estherville
(43.4020°N, 94.8330°W)
Time: 19:13:54
(UTC-05:00)

Envisat - Visible Passes

Search period start: 22 October 2019 00:00
Search period end: 01 November 2019 00:00
Orbit: 764 x 766 km, 98.1° (Epoch: 22 October)

Date Brightness Start Highest point End Pass type
(mag) Time Alt. Az. Time Alt. Az. Time Alt. Az.
22 Oct 6.7 06:46:06 10° ENE 06:46:52 10° E 06:47:39 10° E visible
22 Oct 3.5 19:37:07 10° S 19:42:09 65° W 19:47:12 10° NNW visible
23 Oct 3.0 19:00:26 10° SSE 19:05:25 59° ENE 19:10:25 10° N visible
23 Oct 5.8 20:41:31 10° SW 20:44:49 17° W 20:48:08 10° NW visible
24 Oct 6.0 07:09:10 10° NE 07:12:43 19° E 07:16:14 10° SE visible
24 Oct 4.5 20:03:04 10° SSW 20:07:44 37° W 20:12:27 10° NNW visible
25 Oct 3.1 19:25:48 10° S 19:30:52 81° WSW 19:35:59 10° NNW visible
26 Oct 3.2 18:49:21 10° SE 18:54:12 47° ENE 18:59:03 10° N visible
26 Oct 5.5 20:29:35 10° SW 20:33:26 22° W 20:37:20 10° NW visible
27 Oct 6.2 06:58:29 10° NE 07:01:19 15° E 07:04:09 10° ESE visible
27 Oct 4.1 19:51:33 10° S 19:56:25 46° W 20:01:20 10° NNW visible
28 Oct 2.9 19:14:32 10° SSE 19:19:36 81° ENE 19:24:43 10° N visible
28 Oct 6.1 20:57:12 10° WSW 20:59:14 12° W 21:01:17 10° WNW visible
29 Oct 3.5 18:38:20 10° SE 18:42:59 38° ENE 18:47:39 10° N visible
29 Oct 5.1 20:17:48 10° SSW 20:22:05 27° W 20:26:23 10° NW visible
30 Oct 6.5 06:48:13 10° ENE 06:49:54 11° E 06:51:35 10° ESE visible
30 Oct 3.6 19:40:08 10° S 19:45:07 59° W 19:50:09 10° NNW visible
31 Oct 3.0 19:03:21 10° SSE 19:08:22 65° ENE 19:13:24 10° N visible
31 Oct 5.9 20:44:49 10° SW 20:47:50 16° W 20:50:52 10° NW visible
